Location: Newport
(44.6370°N, 124.0520°W)
Time: 20:14:04
(UTC-08:00)

OTV 5 (USA 277) - Pass Details

Date: 11 October 2017
Orbit: 404 x 417 km, 43.0° (Epoch: 07 September)

Event Time Altitude Azimuth Distance (km) Brightness Sun altitude
Rises 20:34:08 0° 249° (WSW) 2,350 ? -21.4°
Reaches altitude 10° 20:36:16 10° 244° (WSW) 1,489 ? -21.8°
Enters shadow 20:38:34 36° 219° (SW) 674 ? -22.2°
